Regional Weather Roundup
Issued by NWS

Home | Current Version | Previous Version | Graphics & Text | Print | Product List | Glossary On
Versions: 1 2 3 4 5 6 7 8 9 10 11 12 13 14 15 16 17 18 19 20 21 22 23 24 25 26 27 28
000
ASUS45 KCYS 221010
RWRWY

WYOMING REGIONAL WEATHER ROUNDUP
NATIONAL WEATHER SERVICE CHEYENNE WY
400 AM MDT MON MAY 22 2017

NOTE:  "FAIR" INDICATES FEW OR NO CLOUDS BELOW 12,000 FEET
WITH NO SIGNIFICANT WEATHER AND/OR OBSTRUCTIONS TO VISIBILITY.

WYZ001-221100-
YELLOWSTONE NATIONAL PARK

CITY           SKY/WX    TMP DP  RH WIND       PRES   REMARKS
LK YELLOWSTONE   N/A     27  25  92 CALM      30.36S
W YELLOWSTONE  NOT AVBL

$$
WYZ002>013-054>058-071-098>099-221100-
NORTHERN WYOMING

CITY           SKY/WX    TMP DP  RH WIND       PRES   REMARKS
JACKSON        FAIR      30  27  86 NE3       30.32S
CODY           FAIR      50  34  54 SW9       30.20F
GREYBULL       FAIR      48  33  56 SE5       30.15F
WORLAND        CLOUDY    45  41  86 S3        30.16F
SHERIDAN       FAIR      49  39  68 CALM      30.11F
BUFFALO        CLOUDY    51  34  52 NW20G29   30.16R
GILLETTE       CLOUDY    48  38  68 W9        30.11R
HULETT         CLOUDY    46  39  76 CALM      30.09S
NEWCASTLE      FAIR      37  36  93 E3        30.10S

$$
WYZ014>020-022>026-101>103-221100-
CENTRAL WYOMING

CITY           SKY/WX    TMP DP  RH WIND       PRES   REMARKS
BIG PINEY      FAIR      29  27  92 N9        30.33S WCI  20
PINEDALE       FAIR      28  28 100 NW5       30.33F WCI  23
DUBOIS         FAIR      34  28  80 W12       30.28F WCI  25
LANDER         FAIR      41  33  73 NW7       30.21F
RIVERTON       FAIR      40  37  89 NW10      30.22F WCI  33
CASPER         FAIR      39  35  86 W12       30.18F WCI  32
DOUGLAS        FAIR      36  33  89 NW5       30.16F WCI  32

$$
WYZ021-027>030-104>119-221100-
SOUTHERN WYOMING

CITY           SKY/WX    TMP DP  RH WIND       PRES   REMARKS
EVANSTON       FAIR      39  38  96 SW7       30.32S WCI  34
KEMMERER         N/A     34  32  93 NW9       30.33S WCI  26
FORT BRIDGER   FAIR      37  37 100 W9        30.33F WCI  31
ROCK SPRINGS   FAIR      38  34  85 SW7       30.30F WCI  33
DIXON            N/A     33  31  94 NE5       30.32S WCI  28
RAWLINS        FAIR      32  28  85 NW3       30.26F
SARATOGA       FAIR      32  32 100 S8        30.28F WCI  25
LARAMIE        FOG       28  27  96 S7        30.24F VSB 3/4 WCI  21
CHEYENNE       FAIR      36  30  79 W12       30.21F WCI  28
TORRINGTON     FAIR      40  39  97 W3        30.13F
PINE BLUFFS    FAIR      34  34 100 W6        30.19F WCI  29

$$




USA.gov is the U.S. government's official web portal to all federal, state and local government web resources and services.